User: anonymous   Login
Location: Unspecified
(0.0000°N, 0.0000°E)
Time: 00:46:08
(UTC+00:00)
Language:

NINGXIA-1 1 - Orbit

View from above orbital plane
View from above orbital plane
View from above satellite
View from above satellite

Ground track
Ground track

The orbit is defined by the following mean orbital elements,

1 44779U          26145.59282050 +.00000000 +00000-0 +27584-4 0 00003
2 44779  45.0061 280.8219 0010385  49.5011 310.6727 14.02036316    08
Epoch (UTC): 25 May 2026 14:13:39
Eccentricity: 0.0010385
inclination: 45.0061°
perigee height: 879 km
apogee height: 894 km
right ascension of ascending node: 280.8219°
argument of perigee: 49.5011°
revolutions per day: 14.02036316
mean anomaly at epoch: 310.6727°

The dashed part of the orbit path shows where the satellite is in the earth's shadow,  

DLR